Regional Weather Roundup
Issued by NWS

Home | Current Version | Previous Version | Graphics & Text | Print | Product List | Glossary On
Versions: 1 2 3 4 5 6 7 8 9 10 11 12 13 14 15 16 17 18 19 20 21 22 23 24 25 26 27 28 29 30 31 32 33 34 35 36 37 38 39 40 41 42 43 44 45 46 47 48 49 50
000
ASUS43 KDMX 031607
RWRIA

WEATHER ROUNDUP FOR IOWA
NATIONAL WEATHER SERVICE DES MOINES IA
1100 AM CDT WED JUN 03 2015

NOTE: "FAIR" INDICATES FEW OR NO CLOUDS BELOW 12,000 FEET WITH NO
SIGNIFICANT WEATHER AND/OR OBSTRUCTIONS TO VISIBILITY.

* - THESE STATIONS ARE NOT NWS STATIONS...THUS NOT UNDER NWS
QUALITY CONTROL.  THEY ALSO DO NOT REPORT WEATHER SUCH
AS PRECIPITATION OR FOG.

IAZ001>003-012>014-020>022-031>034-043>046-031700-
   NORTHWEST IOWA

CITY           SKY/WX    TMP DP  RH WIND       PRES   REMARKS
CARROLL *      MOSUNNY   70  63  78 S16       29.85F
CHEROKEE *     CLOUDY    72  63  73 W12G17    29.83S
DENISON *      SUNNY     70  66  88 SW7       29.85R
LE MARS *      CLOUDY    70  64  83 NW13      29.86R
ORANGE CITY *  RAIN      64  63  94 NW13      29.85R
SHELDON *      RAIN      66  66 100 W10G16    29.83R
SIOUX CITY     PTSUNNY   73  62  68 NW14      29.84R
SPENCER        CLOUDY    70  63  78 W15       29.84R
STORM LAKE *   MOSUNNY   72  61  68 S12       29.85S
$$

IAZ055>058-069>071-079>083-090>094-031700-
   SOUTHWEST IOWA

CITY           SKY/WX    TMP DP  RH WIND       PRES   REMARKS
ATLANTIC *     MOSUNNY   66  64  94 SE12      29.83F
AUDUBON *      MOSUNNY   66  63  88 S6        29.85F
CLARINDA *     CLOUDY    64  64 100 S16G24    29.85F
COUNCIL BLFS * PTSUNNY   66  66 100 VRB7G16   29.87R
CRESTON *      SUNNY     68  66  94 S20       29.92F
HARLAN  *      CLOUDY    66  66 100 CALM      29.90R
LAMONI         CLOUDY    64  60  87 S12G23    29.94F
RED OAK *      CLOUDY    66  64  94 S16G22    29.83R
SHENANDOAH *   CLOUDY    66  64  94 S26G36    29.83F
$$

IAZ047>049-059>061-072>074-084-031700-
   CENTRAL IOWA

CITY           SKY/WX    TMP DP  RH WIND       PRES   REMARKS
AMES           PTSUNNY   69  63  81 S12       29.86F
ANKENY *       CLOUDY    68  66  94 W8G16     29.87S
CHARITON *     CLOUDY    64  63  94 S17       29.92F
DES MOINES     CLOUDY    71  65  81 S15       29.84F
GRINNELL*      CLOUDY    68  61  77 S17       29.91F
KNOXVILLE *    CLOUDY    64  63  94 S12       29.89F
MARSHALLTOWN   PTSUNNY   68  59  73 S20G26    29.87F
PELLA *        CLOUDY    66  64  94 SE9       29.91F
PERRY *          N/A     72  63  73 S15       29.85F
$$

IAZ004>006-015-016-023>025-035-036-031700-
   NORTH CENTRAL IOWA

CITY           SKY/WX    TMP DP  RH WIND       PRES   REMARKS
ALGONA *       PTSUNNY   70  63  78 S24       29.85S
CLARION *      MOSUNNY   70  61  73 S18       29.85F
ESTHERVILLE    CLOUDY    64  60  87 S14       29.83S
FORT DODGE *   CLOUDY    72  63  73 S17G23    29.87S
MASON CITY     CLOUDY    64  59  83 S14       29.89S
FOREST CITY *  CLOUDY    61  61 100 S12       29.87R
IOWA FALLS *   CLOUDY    66  61  82 S12       29.89S
$$

IAZ007>011-017>019-026>030-037>042-050>054-066-031700-
   NORTHEAST IOWA

CITY           SKY/WX    TMP DP  RH WIND       PRES   REMARKS
CEDAR RAPIDS   CLOUDY    69  59  70 S12       29.94F
CHARLES CITY * MOSUNNY   70  59  68 S21       29.87F
CLINTON *      MOSUNNY   72  57  60 S10       30.04S
DECORAH *      SUNNY     70  57  64 S14G24    29.91F
DUBUQUE        PTSUNNY   69  56  62 S15       29.99F
MONTICELLO *   MOSUNNY   73  57  56 S15G23    29.97F
OELWEIN *      SUNNY     72  57  60 SE22G28   29.91F
WATERLOO       PTSUNNY   72  60  66 SE16G24   29.87F
$$

IAZ064-065-067-068-078-031700-
   EAST CENTRAL IOWA

CITY           SKY/WX    TMP DP  RH WIND       PRES   REMARKS
DAVENPORT      MOSUNNY   73  56  54 SE17      30.01F
IOWA CITY      CLOUDY    69  58  67 S10       29.98F
MT. PLEASANT * CLOUDY    70  57  64 S10       30.00R
MUSCATINE *    SUNNY     72  57  60 S14       29.98F
QUAD CITIES    MOSUNNY   71  56  58 S13       30.00F
$$

IAZ062-063-075>077-085>089-095>099-031700-
   SOUTHEAST IOWA

CITY           SKY/WX    TMP DP  RH WIND       PRES   REMARKS
BURLINGTON     PTSUNNY   70  59  68 S12       30.00F
FAIRFIELD *    MOSUNNY   68  57  68 S13       29.97F
FORT MADISON *   N/A     70  61  73 S9G17     30.01S
KEOKUK *       SUNNY     70  61  73 S9        30.00S
OSKALOOSA *      N/A     68  59  73 S16       29.94F
CENTERVILLE *  LGT RAIN  61  61 100 S14       29.98S
OTTUMWA        CLOUDY    65  59  81 S16       29.94F
WASHINGTON *   MOSUNNY   72  59  64 S13       29.99S
$$

ABBREVIATIONS USED IN REMARKS
   TC - TEMPERATURES IN CELSIUS
  WCI - WIND CHILL INDEX
   HX - HEAT INDEX
  VSB - VISIBILITY
$$



USA.gov is the U.S. government's official web portal to all federal, state and local government web resources and services.